Location: Newark
(55.7083°N, 13.1992°E)
Time: 12:17:00
(UTC+00:00)

N. Korean satellite - Pass Details

Date: 30 January 2020
Orbit: 456 x 505 km, 97.2° (Epoch: 19 February)

Event Time Altitude Azimuth Distance (km) Brightness Sun altitude
Rises 05:05:18 0° 15° (NNE) 2,549 10.3 -16.7°
Reaches altitude 10° 05:07:22 10° 17° (NNE) 1,673 9.4 -16.4°
Maximum altitude 05:10:58 75° 103° (ESE) 512 6.7 -15.9°
Drops below altitude 10° 05:14:36 10° 190° (S) 1,687 9.3 -15.4°
Sets 05:16:41 0° 192° (SSW) 2,572 10.2 -15.1°
